Wind_Speed
30 32 35 36 41 44 46 48 50 50 50 52 54 54 55 54 55 55 53 52 52 51 49 49 48 47 45 43 43 42 41 39 38 38 37 37 36 35 34 34 34 34 34
26 28 32 34 36 40 43 45 48 48 48 48 50 52 54 55 55 56 54 53 53 52 51 50 50 49 47 46 45 44 43 42 42 41 41 40 38 37 37 36 36 36 36
26 26 28 30 33 37 39 41 43 44 45 46 48 50 51 53 55 56 55 55 54 55 54 52 51 50 49 47 46 46 45 44 45 44 43 42 41 40 39 38 38 38 38
22 24 25 27 30 33 36 39 40 40 40 42 45 46 48 48 51 53 54 54 54 55 54 53 52 52 51 49 48 48 47 47 47 47 46 46 44 44 42 41 41 40 40
17 18 20 23 26 29 32 34 36 38 38 39 43 45 46 48 50 51 53 54 54 55 55 54 53 52 51 50 49 49 49 48 48 48 47 47 47 46 45 43 43 42 42
13 14 15 18 21 26 30 31 31 33 35 37 39 43 45 45 47 49 49 51 52 53 54 54 54 53 53 53 52 50 50 49 49 49 49 49 48 47 47 46 46 45 44
9 11 13 15 17 20 24 26 27 29 32 34 35 39 43 43 43 45 47 48 49 50 52 54 53 52 52 52 52 52 51 51 50 50 50 50 49 49 48 48 48 47 47
6 7 9 10 13 16 19 21 22 26 29 31 33 35 38 41 41 44 46 47 48 48 50 52 53 53 52 53 54 52 51 51 51 50 49 50 50 49 49 48 49 49 49
4 4 6 7 9 12 15 17 19 22 26 29 31 32 34 37 40 42 45 47 48 48 48 50 51 52 52 53 54 55 53 52 51 51 51 51 51 51 51 50 50 50 50
3 3 3 4 6 9 11 14 17 20 22 25 28 31 32 33 35 39 41 44 46 47 48 49 50 52 53 53 52 54 55 55 54 53 53 52 51 51 51 50 50 51 51
3 3 3 3 5 6 8 10 13 17 18 21 24 28 31 33 34 36 39 41 44 45 47 48 49 51 52 53 53 52 53 55 55 55 54 53 52 51 52 51 51 51 50
4 4 3 3 2 3 5 7 10 13 16 18 20 24 28 31 33 35 38 41 44 46 45 45 46 47 50 51 52 52 53 54 55 56 55 54 52 51 51 50 50 50 50
5 4 4 5 4 4 5 6 8 9 12 15 18 21 24 28 31 32 34 38 41 43 44 44 45 46 48 51 53 53 53 53 53 54 55 53 53 53 52 51 50 49 49
6 5 6 6 6 6 6 7 8 9 10 13 16 18 20 25 28 30 32 35 37 39 41 44 44 45 48 50 53 54 54 54 54 53 53 53 53 52 51 51 50 49 49
7 6 6 7 8 8 8 8 9 9 10 12 13 15 17 20 23 27 30 32 35 37 39 43 44 45 47 48 50 53 53 53 53 54 53 52 52 51 51 51 51 51 51
9 9 9 8 8 8 9 10 11 11 12 13 14 15 17 19 21 25 29 31 34 36 38 41 42 43 44 45 46 47 49 50 51 51 51 51 51 51 52 52 52 52 52
9 10 11 10 10 11 11 11 11 13 14 15 16 18 19 20 22 24 27 30 33 35 38 40 41 42 43 45 45 47 47 48 49 50 51 52 53 53 53 53 52 53 53
10 11 12 12 13 13 13 14 15 16 17 17 18 19 20 21 22 24 27 30 32 34 36 37 39 41 42 44 45 47 48 48 48 49 50 51 52 53 52 52 52 53 52
12 13 13 14 14 15 16 18 18 19 20 20 20 21 22 23 24 25 27 29 32 33 34 36 37 39 41 43 44 46 46 46 46 46 47 48 49 50 50 51 51 50 50
14 15 16 16 16 17 19 20 21 21 22 22 23 23 24 24 25 26 27 28 30 31 33 35 36 38 40 42 43 44 44 44 45 46 47 48 48 49 49 50 50 49 49
15 16 17 18 19 19 20 21 22 23 23 24 25 26 25 25 26 27 27 28 30 31 33 34 36 37 38 39 40 42 43 43 44 44 46 47 48 49 49 48 49 49 49
17 18 19 20 21 21 22 22 24 25 26 27 27 26 26 27 27 28 28 28 30 31 32 33 34 35 37 39 40 41 41 41 43 43 44 44 46 47 47 47 47 48 49
19 20 21 22 23 24 24 24 26 27 28 28 29 28 28 28 29 29 30 31 31 32 32 34 35 36 37 38 39 40 41 41 41 41 41 41 42 43 44 45 45 45 46
21 21 22 23 24 25 26 27 28 29 30 31 30 29 30 30 30 31 32 33 33 33 33 34 35 35 37 37 38 38 39 39 39 40 41 42 42 43 43 43 43 43 44
22 23 24 25 26 27 28 30 31 32 33 32 32 33 33 33 33 33 33 33 33 33 33 34 34 35 36 36 37 38 38 38 38 38 38 39 41 41 41 40 39 40 40
25 26 27 28 28 29 30 31 33 34 34 34 34 35 35 36 35 35 35 34 34 34 34 35 35 35 35 35 36 36 37 37 38 38 37 37 38 39 40 40 40 40 40
Wind_Direction
240 241 241 240 237 235 236 234 233 233 233 233 234 235 235 234 233 233 232 232 232 234 235 237 238 240 242 244 245 248 250 252 253 255 257 258 259 262 263 265 267 269 272
249 246 245 241 238 236 235 234 235 234 233 233 234 234 235 234 233 233 233 233 233 234 235 237 237 238 240 243 246 248 250 252 253 255 256 258 259 261 263 265 267 270 272
253 253 252 245 241 238 237 235 234 232 232 234 234 234 234 234 233 233 234 235 235 234 236 238 238 239 241 243 246 248 250 251 253 254 256 258 259 260 262 264 266 268 270
256 255 254 250 246 240 237 234 236 235 234 234 233 235 235 233 232 232 233 234 235 235 236 238 240 240 241 243 246 248 249 250 252 254 256 257 259 260 262 263 264 266 268
266 259 257 254 248 242 238 237 237 237 238 236 233 234 234 235 234 234 234 235 236 236 237 239 240 241 242 243 244 246 249 250 252 253 255 257 259 261 262 263 264 265 267
264 262 262 258 252 247 243 241 239 239 239 237 236 238 235 237 237 235 234 235 236 238 239 241 242 242 243 244 244 246 248 250 252 253 254 256 258 260 260 262 263 264 265
266 261 262 258 253 248 244 245 242 240 239 239 241 240 237 238 238 236 234 235 237 239 241 242 242 243 245 244 244 244 248 250 252 253 254 256 258 258 260 262 263 263 264
269 260 261 262 255 250 248 247 245 244 243 243 242 240 241 241 239 237 235 235 236 239 241 242 243 244 244 245 245 245 246 249 251 252 254 255 257 259 261 263 264 264 264
276 276 264 261 256 251 251 251 250 248 246 246 245 241 242 243 242 239 237 236 237 239 241 242 244 244 245 245 244 245 245 247 249 251 253 255 256 258 260 263 265 266 266
302 304 302 280 276 267 255 256 257 255 253 249 246 244 246 244 242 240 239 239 239 241 243 244 245 246 246 246 246 246 247 247 248 251 254 256 257 259 259 261 264 265 267
320 320 328 305 297 281 269 265 259 255 252 250 249 248 248 244 245 245 242 241 241 242 246 246 247 247 247 247 247 248 248 248 249 252 254 256 256 257 258 261 263 264 265
2 352 354 350 320 299 287 279 276 268 257 254 255 254 250 248 248 248 245 242 242 243 246 246 246 248 249 249 249 250 251 251 251 252 253 255 255 257 258 260 262 264 265
6 7 6 355 344 329 311 300 292 282 272 267 264 262 258 256 253 251 247 246 244 244 245 245 247 250 252 250 249 250 251 251 252 253 253 254 255 256 257 260 263 264 264
359 355 354 354 345 336 326 315 304 292 282 280 275 271 268 262 257 255 252 249 247 246 245 246 249 251 252 252 251 252 254 253 253 253 253 253 255 257 257 259 261 262 263
2 358 348 345 342 337 331 320 309 303 295 291 286 278 279 272 264 258 255 254 252 250 248 247 248 251 253 253 254 254 254 255 255 254 254 254 255 256 256 258 260 261 262
0 1 356 347 340 333 322 317 312 305 299 295 294 290 287 281 272 264 260 259 255 251 249 249 249 251 253 254 255 255 255 255 255 255 254 254 254 256 257 258 259 259 261
350 347 346 342 340 336 326 318 315 311 305 300 297 292 289 285 278 270 265 261 258 255 252 251 250 251 253 253 254 255 256 256 256 255 255 255 255 256 256 257 257 258 259
347 345 340 339 337 336 332 324 318 314 312 309 303 296 292 287 282 276 272 267 262 260 256 255 254 254 253 252 253 254 255 255 256 256 257 258 257 255 256 258 258 260 261
340 342 341 339 337 336 335 329 321 317 313 311 308 302 298 293 288 284 278 272 268 264 260 257 257 257 257 256 255 255 256 256 257 258 258 258 256 255 256 258 259 260 261
337 337 337 336 334 333 330 330 328 324 319 313 309 304 299 297 295 291 285 278 273 268 265 261 259 259 260 259 257 256 256 255 256 257 258 257 255 256 256 257 258 259 260
327 327 327 328 328 328 327 328 326 325 321 315 311 309 304 301 301 297 292 285 279 275 272 268 264 263 262 261 259 258 257 257 257 258 258 257 256 257 256 257 258 261 260
317 319 321 321 322 322 321 320 321 321 321 318 315 311 307 304 303 302 299 295 290 283 277 272 269 267 265 263 261 259 258 259 260 261 261 260 259 258 257 257 259 260 258
312 313 315 316 317 318 318 317 319 320 320 318 315 311 307 306 304 302 300 298 296 292 284 278 273 269 267 265 264 261 259 260 261 262 262 261 259 258 258 257 258 259 259
308 310 312 314 315 316 317 317 317 318 317 315 313 311 309 308 306 303 301 299 296 295 290 284 280 275 270 267 265 262 261 261 261 262 262 262 260 260 259 257 256 257 258
302 305 308 311 314 316 317 317 316 316 315 313 312 310 309 308 307 305 303 300 298 295 292 288 284 279 275 271 268 265 262 262 262 261 262 261 259 258 256 254 254 255 255
298 301 305 307 309 311 313 315 314 314 314 313 312 310 310 309 307 305 304 301 299 297 295 292 287 282 280 277 273 269 267 264 263 263 263 262 259 257 256 255 255 254 255
Height
5656 5659 5663 5665 5669 5674 5680 5685 5691 5696 5702 5707 5714 5720 5727 5733 5739 5745 5750 5756 5761 5766 5771 5776 5780 5785 5789 5793 5796 5799 5802 5805 5807 5809 5811 5813 5815 5816 5817 5818 5818 5819 5819
5650 5652 5655 5658 5661 5666 5670 5675 5681 5686 5691 5697 5703 5709 5715 5722 5728 5734 5740 5745 5751 5756 5761 5766 5771 5776 5780 5783 5787 5790 5793 5796 5798 5801 5802 5805 5807 5808 5809 5810 5811 5811 5811
5645 5646 5648 5651 5654 5658 5661 5666 5671 5677 5682 5687 5692 5697 5703 5710 5716 5723 5729 5735 5740 5746 5752 5757 5762 5766 5770 5774 5778 5781 5784 5786 5788 5790 5793 5795 5798 5800 5801 5802 5802 5802 5803
5639 5640 5642 5645 5648 5651 5654 5658 5663 5668 5673 5678 5683 5688 5693 5700 5706 5713 5719 5724 5729 5735 5741 5746 5751 5756 5760 5764 5767 5770 5773 5776 5778 5780 5783 5786 5787 5789 5791 5793 5793 5793 5794
5635 5636 5637 5639 5641 5644 5648 5652 5656 5661 5665 5670 5674 5679 5684 5691 5696 5702 5708 5713 5719 5724 5730 5735 5740 5745 5749 5753 5756 5759 5762 5765 5768 5770 5772 5774 5776 5778 5780 5782 5783 5783 5784
5632 5632 5633 5635 5636 5638 5641 5645 5649 5654 5658 5662 5666 5670 5675 5681 5686 5691 5697 5703 5708 5713 5718 5723 5728 5733 5737 5742 5745 5748 5751 5754 5757 5759 5761 5763 5765 5767 5768 5770 5771 5772 5773
5629 5629 5630 5630 5631 5633 5635 5639 5642 5646 5650 5654 5658 5661 5666 5670 5675 5681 5687 5693 5698 5702 5707 5712 5717 5721 5725 5729 5733 5736 5740 5742 5745 5748 5750 5752 5754 5755 5756 5757 5759 5760 5762
5627 5626 5626 5627 5627 5628 5630 5633 5636 5639 5643 5646 5649 5653 5657 5661 5666 5671 5677 5683 5688 5692 5696 5700 5705 5709 5713 5717 5720 5723 5727 5730 5733 5736 5738 5740 5742 5743 5744 5745 5746 5747 5749
5625 5624 5624 5624 5625 5626 5627 5628 5631 5634 5636 5639 5642 5646 5650 5654 5657 5662 5666 5672 5677 5681 5685 5689 5693 5697 5701 5704 5707 5711 5715 5718 5721 5724 5726 5728 5730 5731 5732 5733 5734 5735 5735
5625 5623 5623 5622 5623 5623 5624 5625 5627 5629 5631 5633 5636 5639 5643 5646 5649 5652 5656 5661 5666 5670 5674 5677 5681 5685 5689 5692 5695 5699 5702 5706 5709 5711 5713 5715 5717 5718 5719 5720 5721 5722 5722
5624 5623 5622 5621 5621 5621 5622 5623 5624 5625 5626 5627 5629 5632 5635 5638 5640 5643 5647 5651 5655 5659 5663 5666 5670 5673 5677 5680 5684 5687 5690 5693 5696 5698 5700 5702 5704 5705 5706 5708 5709 5709 5710
5624 5623 5622 5621 5620 5620 5620 5620 5620 5620 5621 5622 5623 5625 5627 5629 5631 5634 5637 5640 5644 5648 5651 5655 5658 5662 5665 5668 5671 5675 5677 5680 5682 5685 5687 5689 5690 5691 5693 5695 5696 5697 5697
5626 5624 5623 5621 5620 5619 5618 5618 5617 5617 5617 5617 5618 5619 5620 5622 5623 5625 5628 5630 5633 5636 5640 5644 5647 5650 5653 5656 5658 5661 5664 5667 5669 5671 5673 5675 5677 5678 5680 5682 5683 5684 5685
5626 5624 5623 5621 5619 5617 5616 5615 5614 5613 5613 5613 5613 5613 5613 5614 5615 5617 5618 5621 5623 5626 5629 5632 5635 5638 5641 5643 5645 5648 5650 5653 5655 5657 5659 5661 5663 5665 5667 5668 5670 5671 5672
5626 5624 5622 5620 5618 5616 5614 5613 5612 5611 5610 5609 5608 5608 5607 5607 5607 5608 5609 5611 5613 5616 5618 5621 5624 5627 5628 5630 5632 5634 5636 5638 5640 5642 5644 5647 5649 5651 5653 5654 5656 5657 5658
5625 5623 5621 5619 5617 5615 5613 5611 5609 5608 5606 5605 5603 5602 5601 5600 5599 5599 5600 5602 5603 5605 5607 5610 5613 5614 5616 5617 5618 5620 5621 5623 5625 5628 5630 5632 5635 5637 5639 5641 5642 5643 5645
5624 5622 5619 5617 5615 5613 5610 5608 5606 5604 5602 5600 5599 5597 5595 5594 5593 5592 5592 5592 5593 5595 5597 5599 5600 5602 5603 5604 5606 5607 5608 5609 5611 5613 5615 5618 5620 5622 5625 5626 5627 5629 5630
5623 5620 5617 5615 5612 5610 5607 5604 5602 5600 5597 5595 5593 5591 5589 5588 5586 5585 5584 5583 5583 5584 5585 5587 5588 5589 5590 5591 5593 5594 5595 5596 5597 5599 5601 5603 5605 5607 5609 5611 5613 5614 5616
5621 5618 5615 5612 5609 5606 5604 5601 5598 5595 5593 5590 5587 5585 5583 5581 5579 5577 5575 5574 5573 5573 5574 5575 5576 5577 5578 5578 5579 5581 5581 5583 5584 5586 5587 5589 5590 5592 5594 5597 5599 5601 5602
5619 5616 5613 5610 5607 5604 5601 5598 5595 5592 5589 5585 5582 5579 5576 5574 5571 5569 5566 5564 5563 5562 5562 5563 5563 5564 5565 5566 5567 5567 5569 5570 5571 5573 5574 5575 5577 5578 5579 5582 5585 5587 5589
5616 5614 5611 5607 5604 5601 5598 5595 5592 5589 5585 5581 5577 5573 5570 5567 5564 5561 5558 5556 5554 5553 5552 5552 5552 5552 5553 5553 5554 5554 5555 5557 5558 5559 5561 5562 5563 5564 5566 5568 5570 5573 5575
5613 5610 5608 5604 5601 5598 5595 5592 5588 5584 5580 5576 5571 5567 5564 5560 5557 5554 5550 5548 5545 5543 5542 5541 5540 5540 5541 5541 5541 5542 5542 5543 5544 5546 5548 5548 5550 5551 5553 5554 5556 5559 5561
5609 5607 5604 5601 5597 5594 5590 5587 5583 5579 5574 5570 5566 5561 5558 5554 5551 5547 5544 5541 5538 5535 5533 5531 5530 5530 5529 5529 5529 5530 5531 5531 5532 5533 5534 5536 5537 5538 5539 5541 5543 5545 5548
5605 5602 5599 5596 5592 5589 5585 5581 5577 5573 5568 5564 5559 5555 5552 5548 5544 5540 5537 5533 5530 5527 5524 5522 5520 5519 5519 5518 5518 5518 5519 5520 5520 5521 5522 5523 5524 5525 5527 5528 5530 5533 5536
5599 5597 5594 5590 5587 5583 5579 5575 5570 5566 5561 5557 5553 5548 5544 5540 5536 5532 5528 5525 5521 5518 5515 5513 5511 5510 5509 5508 5507 5507 5507 5508 5509 5509 5510 5511 5512 5513 5514 5516 5519 5521 5524
5593 5590 5587 5584 5580 5576 5572 5568 5563 5559 5554 5550 5545 5541 5536 5532 5528 5524 5520 5515 5512 5509 5505 5503 5501 5499 5498 5496 5495 5495 5495 5496 5497 5498 5499 5499 5499 5501 5502 5505 5507 5509 5512